Timeline UpdatesTrip UpdatesNews PostsPvt Posts♥♥Travel TipsAdmin PostsConv PostsFollowed PostsChat RequestsBlog PostsPNR Posts

Disclaimer
Search
 
 
Sat Oct 25, 2014 08:18:45 ISTHomeTrainsΣChainsAtlasPNRForumGalleryNewsFAQTripsMembersLoginFeedback
No Recent News for this Train
Other Trains in the News **new
Latest...
..
Mon Dec 30, 2013 (12:01AM)
⇐ Return Journey: Train# 19038

19037/Avadh Express

Time-Table HAS CHANGED.
Sep 17 2014 (3:47PM)
Change Departure Station:
Change Arrival Station:
Post a Train Travel TipPost a Train Travel Tip **new
Post a Comment/Question/Picture/VideoPost a Comment/Question/Picture/Video
Pantry/Catering
✓ Pantry Car Avbl
✓ Catering Avbl
Loco/Rake Reversals
LJN/Lucknow Junction NER (6);
RSA - Rake Sharing
19037/19038 have RSA with 19039/19040.
Rake/Coach Composition
Wap 4 BRC shed-SLR-S15-S14-S13-S12-S11-S10-S9-S8-S7-S6-S5-S4-S3-S2-S1-PC-B2-B1-A1-GEN-GEN-SLR; Total 23 Coaches
Loco
BDTS-LJN : BRC WAP-4; LJN-GKP : GD WDM-3A ;
News    PNR    Forum    Time-Table    Availability    Fare Chart    Map    Arr/Dep History    Trips    Gallery    ΣChains    X/O    Timeline    
Travel Time: 34h 32m    58 halts    Distance: 1592 km    Avg Speed: 46 km/hr
Type: Mail/Express
Zone: WR/Western
Departs @ 03:08 (Avg on time)
Platform# 1
 M WT S
Surat/ST 
Arrives @ 13:40 +1 night (Avg 14m late)
Platform# 7
S T TF 
Gorakhpur Junction/GKP 

58 halts. 241 intermediate Stations between Surat and Gorakhpur Junction

Show ALL intermediate Stations  Show Old Time-Table

#TrkCodeStation NameX/OArrivesAvgDepartsAvgHaltPFDay#KmSpeedElevZoneAddress
1/==/BDTSMumbai Bandra Terminus (5)  -22:40+011-252.2234mWRMumbai 400050, Maharashtra
2/==/ADHMumbai Andheri (9)  22:56+222:58+22m81-246.04212mWRMumbai, Maharashtra
3/==/BVIMumbai Borivali (8)  23:13 23:16+523:18+85 2m61-233.46719mWRMumbai - 400092, Maharashtra
4/==/BORBoisar (3)  00:19+1200:21+122m22-165.26017mWRBoisar Tel.no-02525-266626, Maharashtra
5/==/VAPIVapi (3)X  01:31+901:33+92m12-94.96327mWRVapi, Gujarat
6/==/BLValsad (3)X  01:58+502:00+62m22-68.76515mWRValsad, Gujarat
7/==/STSurat (4)»X  03:03+003:08+05m120.06519mWRSurat 395001, Gujarat
8/==/AKVAnkleshwar Junction (4)X  03:54+903:56+102m1249.97319mWRAnkleshwar, Gujarat
9/==/BRCVadodara Junction (7)X  05:02+1305:12+2110m32129.87036mWRVadodara 390005, Gujarat
10/==/GDAGodhra Junction (3)  06:15+506:18+53m22203.778122mWRGodhra, Gujarat
11/==/DHDDahod (3)  07:13 07:14+3307:15+332 1m32276.890313mWRDahod, Gujarat
12/==/MGNMeghnagar (3)X  07:37+3807:39+382m12309.974317mWRJhabua, Madhya Pradesh
13/==/BMIBamnia (2)X  08:08+4108:10+402m12345.434392mWRBamnia, Madhya Pradesh
14/==/RTMRatlam Junction (7)  09:30+1209:50+1320m62390.272495mWRRatlam, Madhya Pradesh
15/==/KUHKhachrod (2)X  10:12 10:13+1710:14 10:15+182m22417.824497mWRUjjain, Madhya Pradesh
16/==/NADNagda Junction (4)X  10:55 10:50+011:00 10:55+45m--2431.668468mWRNagda, Madhya Pradesh
17/==/MEPMahidpur Road  11:14 11:10+1111:16 11:12+112m--2448.790493mWCRGogapur, Madhya Pradesh
18/==/VMAVikramgarh Alot (2)X  11:33 11:28+1111:35 11:30+122m22472.673443mWCRKota Division, Madhya Pradesh
19/==/CMUChau Mahla (3)  11:53 11:48+1311:55 11:50+132m22494.466426mWCRJhalawar, Rajasthan
20/==/SVASuwasra (2)  12:08 12:04+1412:10 12:06+132m--2509.867450mWCRSuwasra, Madhya Pradesh
21/==/SGZShamgarh (3)X  12:23 12:18+1412:25 12:20+142m--2523.265463mWCRMandsaur, Madhya Pradesh
22/==/GOHGaroth (2)  12:33 12:30+1412:35 12:32+152m22534.085441mWCRMadhya Pradesh 458880, Madhya Pradesh
23/==/BWMBhawani Mandi (3)X  12:53 12:48+1512:55 12:50+162m--2556.776384mWCRBhawani Mandi, Madhya Pradesh
24/==/JHWJhalawar Road (3)  13:08 13:03+1713:10 13:05+172m--2573.274361mWCRJhalawar City, Rajasthan
25/==/RMARamganj Mandi Junction (3)  13:20 13:15+1713:22 13:17+172m--2585.554358mWCRRamganj Mandi, Rajasthan
26/==/MKXMorak (2)  13:32 13:27+1613:34 13:29+172m22594.681337mWCRMorak, Rajasthan
27/==/DKNTDakaniya Talav (2)  14:13 14:08+2214:15 14:10+242m12647.522278mWCRKota, Rajasthan
28/==/KOTAKota Junction (5)X  14:40 14:35+1414:50 14:40+2010 5m12656.889256mWCRKota, Rajasthan
29/==/LKELakheri (3)  15:23 15:21+3115:25 15:23+322m22717.455228mWCRBundi, Rajasthan
30/==/IDGIndargarh Sumerganj Mandi (2)X  15:35+3415:37+352m22728.478247mWCRIndargarh, Rajasthan
31/==/SWMSawai Madhopur Junction (4)  16:25 16:05+3716:30 16:10+355m--2764.651266mWCRSawai Madhopur, Rajasthan
32/==/GGCGangapur City (3)X  17:24 17:25+1817:25 17:30+201 5m--2828.568270mWCRGangapur, Rajasthan
33/==/SMBJShri Mahabirji (3)  17:50 18:00+2717:52 18:02+262m22862.661240mWCRKarauli, Rajasthan
34/==/HANHindaun City (2)  18:02 18:12+2718:04 18:14+272m--2872.828230mWCRKarauli, Rajasthan
35/==/BXNBayana Junction (3)  19:20 19:25+219:25 19:30+45m12905.771198mWCRBayana, Rajasthan
36/--/RBSRupbas (2)X  20:09 19:59+1520:11 20:01+182m12939.857178mNCRJAGNER ROAD, Rajasthan
37/--/FTSFatehpur Sikri (2)  20:31 20:16+1720:33 20:18+232m12954.050176mNCRAgra, Uttar Pradesh
38/--/KLBKiraoli (1)  20:48 20:33+2320:50 20:35+232m12966.428174mNCRKiraoli, Uttar Pradesh
39/-=/IDHIdgah Agra Junction (3)  21:26 21:21+2221:28 21:23+302m12988.18168mNCRAgra, Uttar Pradesh
40/==/AFAgra Fort (3)  21:45 21:40+2621:55 21:50+3810m12990.214170mNCRRakabganj, Uttar Pradesh
41/==/TDLTundla Junction (5)XO  23:25+2823:35+3410m321013.133167mNCRDistt.Firozabad, Uttar Pradesh
42/==/FZDFirozabad (4)X  00:05+3200:07+342m231029.757164mNCRFirozabad, Uttar Pradesh
43/==/SKBShikohabad Junction (4)X  00:28+3200:30+372m231049.585166mNCRDistrict Firozabad, Uttar Pradesh
44/==/ETWEtawah (5)X  01:09+3901:11+442m331104.970154mNCRDistt. Etawah, Uttar Pradesh
45/==/BNTBharthana (3)XO  01:28+5001:30+582m331124.848147mNCRBharthana, Uttar Pradesh
46/==/PHDPhaphund (4)X  02:15+4202:17+502m331161.136146mNCRdist. Auraiya, Uttar Pradesh
47/==/CNBKanpur Central (10)  04:35+604:45+1210m--31244.347128mNCRKANPUR-208 001, Uttar Pradesh
48/==/ONUnnao Junction (5)X  05:06 05:07+3105:08 05:09+322m--31261.743129mNRUnnao, Uttar Pradesh
49/==/LJNLucknow Junction NER (6)↵¶06:25+1606:50+1425m431315.612126mNERLucknow, Uttar Pradesh
50/--/LCLucknow City (3)  07:14+1507:16+182m--31320.327127mNERLucknow, Uttar Pradesh
51/--/BNZBadshahnagar (2)  07:30+2007:35 07:32+205 2m--31326.626116mNERLucknow, Uttar Pradesh
52/--/GTNRGomti Nagar (3)  07:41 07:42+1907:43 07:44+202m131330.947117mNERLucknow, Uttar Pradesh
53/--/BBKBarabanki Junction (4)  08:10+2408:12+242m--31351.271122mNRPin-225001, Uttar Pradesh
54/==/BUWBurhwal Junction (3)X  08:40 08:35+3208:42 08:37+322m--31378.369119mNERBarabanki, Uttar Pradesh
55/==/JLDJarwal Road (2)X  09:00 08:51+3709:02 08:53+392m--31394.445112mNERBehraich, Uttar Pradesh
56/==/CLJColonelGanj (2)  09:20 09:16+3809:22 09:18+412m--31411.647108mNERGonda, Uttar Pradesh
57/==%GDGonda Junction (3)X  10:15 09:55+3610:25 10:05+3310m231440.573110mNERGonda 271001, Uttar Pradesh
58%==%MURMankapur Junction (5)X  10:48 10:28+3910:50 10:30+392m--31468.470104mNERDistrict Gonda, Uttar Pradesh
59%==%MSWMaskanwa (2)  11:03 10:42+4111:05 10:44+412m--31482.433103mNERChhapaiya Rd, Uttar Pradesh
60%==%SNCSwami Narayan Chhapia (2)11:13 10:52+1711:14 10:54+181 2m--31486.8-100mNERS Narayan Chpla, Uttar Pradesh
61%==%BVBabhnan (2)  11:20 10:58+4611:22 11:00+462m--31498.162101mNERDistrict- Basti, Uttar Pradesh
62%==%BSTBasti (4)  11:50 11:30+4211:55 11:35+415m231528.97190mNERBasti 272001, Uttar Pradesh
63%==%KLDKhalilabad (3)O  12:18 12:00+4412:20 12:02+442m--31558.51386mNERKhalilabad- 272175, Uttar Pradesh
64%==%MHHMaghar (3)  12:34 12:40+2512:36 12:42+272m--31567.05083mNERNH 28. Distt- SantKabirNagar- 272173, Uttar Pradesh
65%==%SWASahjanwa (2)X  12:51 12:52+2412:53 12:54+262m--31575.22280mNERGorakhpur - 273209, Uttar Pradesh
66%==%GKPGorakhpur Junction (10)•  13:40+14-731592.4-84mNERGorakhpur 273001, Uttar Pradesh
Scroll to Top
Scroll to Bottom